Location: ?
(35.4554°N, 139.3092°E)
Time: 22:51:22
(UTC+00:00)

CZ-4B R/B - Pass Details

Date: 21 April 2021
Orbit: 702 x 803 km, 98.9° (Epoch: 10 May)

Event Time Altitude Azimuth Distance (km) Brightness Sun altitude
Rises 17:13:06 0° 21° (NNE) 3,102 7.6 -30.4°
Reaches altitude 10° 17:15:27 10° 27° (NNE) 2,186 6.7 -30.1°
Enters shadow 17:19:56 44° 97° (E) 982 4.2 -29.5°
